CZ-6A DEB, 54292

Orbit data source: Space-Track

CZ-6A DEB, 54292 is space debris in SSO originally from a launch on Fri, 11 Nov 2022 UTC launched from the Taiyaun Space Center, China (TSC). Debris objects in space refer to the collection of defunct objects orbiting the Earth. Examples of debris include non-operational satellites, rocket bodies, and fragments generated from explosions, collisions, or faulty payload assembly.

Loading next visibility...
Identifier
54292, 2022-151AK
Orbit
SSO
Country
Flag of CNCN / PRC
Related business
Manufacturer
SAST
Mission
Spacecraft
Bus & Motor
Unknown
Mass
Unknown
Launch date (UTC)
2022-11-11 (4 years ago)
Launch vehicle
Unknown
Launch site
Taiyaun Space Center, China (TSC)
Object type
Payload
Rocket body
Debris
Shape & HBR
Unknown shape, 0.2 m
Radar Cross Section
Medium (>0.1 m² and <1 m²)

Expand to show TLE details & history
Last TLE update: 1 day ago

TLE from 1 day ago
0 CZ-6A DEB
1 54292U 22151AK  26236.96893463  .00000109  00000-0  91676-4 0  9993
2 54292  98.8784 229.8970 0062268 171.8993 188.3195 14.05795935193597
Epoch: 2026-08-24T23:15Z
TLE epoch observation values (Epoch: 2026-08-24T23:15:15.952Z)
Latitude
-0.00004°
Longitude
-92.16248°
Altitude
921.379 km
Speed
7.368 km/s
True Right ascension
15h 19m 35s
True Declination
0° 00' 00"
Sunlit
Object was in daylight at epoch
Visualization orbit readout
Latitude
Unknown
Longitude
Unknown
Altitude
Unknown
Speed
Unknown
Apparent Right ascension
Unknown
Apparent Declination
Unknown
Sunlit
N/A
Visualization observer readout
Local Sidereal Time
17:37:15
Azimuth
Unknown
Elevation
Unknown
Doppler factor
Unknown
Orbital elements
Apogee altitude
916.118 km
Perigee altitude
825.841 km
Semi-major axis
7,249.116 km
Eccentricity
0.00623
Inclination
98.8784°
RAAN
229.897°
Arg. of periapsis
171.8993°
True anomaly
188.21705°
Mean anomaly
188.3195°
Eccentric anomaly
188.26819°
Mean motion
3.51654 °/min
Orbital period
102.37 mins
BSTAR
0.000091676
Loading maneuver chart data...
Computing Atmospheric mass density...
Loading historical data...
Loading historical data...
Loading historical data...
Loading historical data...
Loading historical data...
Loading historical data...
Loading historical data...

Documentation

Showing up to 5 results
|